Weather History for Mobile, AL

Change the Weather History Date:

Thursday, December 6, 2012

  Actual Average Record
Temperature  
Mean Temperature 66 °F 54 °F  
Max Temperature 76 °F 65 °F 81 °F (1998)
Min Temperature 56 °F 44 °F 23 °F (1886)
Degree Days  
Heating Degree Days 0 11  
Month to date heating degree days 3 65  
Since 1 July heating degree days 316 323  
Cooling Degree Days 1 1  
Month to date cooling degree days 6 6  
Year to date cooling degree days 2703 2509  
Growing Degree Days 15 (Base 50)    
Moisture  
Dew Point 57 °F    
Average Humidity 71    
Maximum Humidity 93    
Minimum Humidity 49    
Precipitation  
Precipitation 0.00 in 0.15 in 2.90 in (1953)
Month to date precipitation 0.05 0.96  
Year to date precipitation 65.67 62.05  
Snow  
Snow 0.00 in 0.00 in 0.00 in (2002)
Month to date snowfall 0.0 0.0  
Since 1 July snowfall 0.0 0.0  
Snow Depth 0.00 in    
Sea Level Pressure  
Sea Level Pressure 30.01 in    
Wind  
Wind Speed 5 mph (ESE)    
Max Wind Speed 16 mph    
Max Gust Speed 20 mph    
Visibility 9 miles    
Events      
T = Trace of Precipitation, MM = Missing Value Source: NWS Daily Summary

Daily Weather History Graph

Daily Weather History Graph

Search for Another Location

Airport:

Trip Planner

Search our weather history database for the weather conditions in past years. The results will help you decide how hot, cold, wet, or windy it might be!

Date:

Astronomy

Dec. 06, 2012 Rise Set
Actual Time 6:37 AM CST 4:51 PM CST
Civil Twilight 6:10 AM CST 5:17 PM CST
Nautical Twilight 5:40 AM CST 5:47 PM CST
Astronomical Twilight 5:11 AM CST 6:17 PM CST
Moon No Moon Rise 11:52 AM CST (12/6)
Length of Visible Light 11h 07m
Length of Day
10h 14m
Waning Gibbous, 49% of the Moon is Illuminated
Dec 6
Waning Gibbous
Dec 13
New
Dec 19
First Quarter
Dec 28
Full
Jan 4
Last Quarter

Hourly Weather History & Observations

Time (CST) Temp. Dew Point Humidity Pressure Visibility Wind Dir Wind Speed Gust Speed Precip Events Conditions
12:56 AM 61.0 °F 57.9 °F 90% 30.04 in 10.0 mi ESE 3.5 mph - N/A   Partly Cloudy
1:56 AM 60.1 °F 57.9 °F 93% 30.04 in 9.0 mi Calm Calm - N/A   Mostly Cloudy
2:56 AM 57.9 °F 55.9 °F 93% 30.02 in 5.0 mi Calm Calm - N/A   Scattered Clouds
3:56 AM 57.9 °F 55.9 °F 93% 30.01 in 5.0 mi Calm Calm - N/A   Partly Cloudy
4:56 AM 57.0 °F 55.0 °F 93% 30.01 in 4.0 mi Calm Calm - N/A   Partly Cloudy
5:56 AM 57.0 °F 55.0 °F 93% 30.03 in 7.0 mi Calm Calm - N/A   Partly Cloudy
6:56 AM 55.9 °F 54.0 °F 93% 30.05 in 6.0 mi Calm Calm - N/A   Partly Cloudy
7:56 AM 61.0 °F 57.9 °F 90% 30.06 in 10.0 mi NE 3.5 mph - N/A   Partly Cloudy
8:56 AM 64.0 °F 57.0 °F 78% 30.06 in 10.0 mi East 5.8 mph - N/A   Scattered Clouds
9:56 AM 70.0 °F 54.0 °F 57% 30.05 in 10.0 mi East 6.9 mph - N/A   Scattered Clouds
10:56 AM 73.0 °F 54.0 °F 51% 30.03 in 10.0 mi ESE 9.2 mph - N/A   Scattered Clouds
11:56 AM 75.0 °F 57.0 °F 53% 30.01 in 10.0 mi SE 9.2 mph - N/A   Scattered Clouds
12:56 PM 73.0 °F 57.0 °F 57% 29.98 in 10.0 mi ESE 10.4 mph - N/A   Mostly Cloudy
1:56 PM 73.0 °F 55.9 °F 55% 29.97 in 10.0 mi SE 11.5 mph - N/A   Mostly Cloudy
2:56 PM 72.0 °F 57.0 °F 59% 29.96 in 10.0 mi SSE 13.8 mph - N/A   Scattered Clouds
3:56 PM 71.1 °F 57.0 °F 61% 29.97 in 10.0 mi SE 9.2 mph - N/A   Mostly Cloudy
4:56 PM 66.9 °F 59.0 °F 76% 29.97 in 10.0 mi SSE 4.6 mph - N/A   Scattered Clouds
5:56 PM 64.0 °F 57.9 °F 80% 29.99 in 10.0 mi South 3.5 mph - N/A   Partly Cloudy
6:56 PM 62.1 °F 57.9 °F 86% 29.99 in 10.0 mi SSE 4.6 mph - N/A   Clear
7:56 PM 61.0 °F 57.0 °F 87% 29.99 in 10.0 mi Calm Calm - N/A   Clear
8:56 PM 61.0 °F 57.0 °F 87% 29.99 in 10.0 mi ESE 3.5 mph - N/A   Clear
9:56 PM 60.1 °F 57.0 °F 90% 29.99 in 10.0 mi ESE 3.5 mph - N/A   Clear
10:56 PM 60.1 °F 57.9 °F 93% 29.98 in 10.0 mi ESE 5.8 mph - N/A   Clear
11:56 PM 57.9 °F 55.9 °F 93% 29.98 in 4.0 mi Calm Calm - N/A   Partly Cloudy